BAW94 EGBB-EGPH

Flight info

Callsign BAW94
Flight time 0h 42m
Altitude 28000
Route LUVUM DCT TNT N57 POL UN601 RIBEL DCT INPIP
Aircraft A321/M-SDE3FGHIRWY/LB1

Departure

Time 2026-05-06 16:15
Airport Birmingham Airport (EGBB)

Arrival

Time 2026-05-06 16:58
Airport Edinburgh Airport (EGPH)
Time Latitude Longitude Altitude Speed Heading
2026-05-06 15:35 52.45197 -1.73713 321 ft 0 kts 326°
2026-05-06 16:07 52.45182 -1.73696 324 ft 4 kts 326°
2026-05-06 16:07 52.45164 -1.73675 321 ft 4 kts 317°
2026-05-06 16:07 52.45149 -1.73642 323 ft 4 kts 281°
2026-05-06 16:08 52.45151 -1.73601 324 ft 4 kts 243°
2026-05-06 16:08 52.45152 -1.73595 324 ft 4 kts 236°
2026-05-06 16:08 52.45140 -1.73625 324 ft 1 kts 236°
2026-05-06 16:08 52.45139 -1.73626 324 ft 0 kts 236°
2026-05-06 16:10 52.45126 -1.73659 323 ft 10 kts 236°
2026-05-06 16:10 52.45104 -1.73757 324 ft 8 kts 283°
2026-05-06 16:11 52.45140 -1.73821 324 ft 5 kts 323°
2026-05-06 16:11 52.45192 -1.73877 324 ft 12 kts 327°
2026-05-06 16:11 52.45269 -1.73962 322 ft 14 kts 326°
2026-05-06 16:11 52.45318 -1.74094 324 ft 14 kts 265°
2026-05-06 16:12 52.45240 -1.74117 323 ft 14 kts 147°
2026-05-06 16:12 52.45154 -1.74020 324 ft 16 kts 146°
2026-05-06 16:12 52.45073 -1.73930 324 ft 8 kts 146°
2026-05-06 16:12 52.45016 -1.73906 324 ft 2 kts 196°
2026-05-06 16:13 52.45004 -1.73899 324 ft 8 kts 149°
2026-05-06 16:13 52.44933 -1.73772 324 ft 19 kts 144°
2026-05-06 16:13 52.44828 -1.73688 324 ft 16 kts 182°
2026-05-06 16:13 52.44727 -1.73760 323 ft 13 kts 226°
2026-05-06 16:14 52.44718 -1.73778 323 ft 0 kts 233°
2026-05-06 16:14 52.44705 -1.73811 324 ft 11 kts 236°
2026-05-06 16:14 52.44687 -1.73855 326 ft 6 kts 237°
2026-05-06 16:14 52.44663 -1.73989 327 ft 6 kts 298°
2026-05-06 16:15 52.44708 -1.74052 324 ft 0 kts 325°
2026-05-06 16:15 52.44841 -1.74196 325 ft 69 kts 327°
2026-05-06 16:15 52.45497 -1.74925 324 ft 155 kts 326°
2026-05-06 16:15 52.46462 -1.76020 1107 ft 167 kts 329°
2026-05-06 16:16 52.47387 -1.77106 2454 ft 160 kts 326°
2026-05-06 16:16 52.48255 -1.78203 3488 ft 169 kts 326°
2026-05-06 16:16 52.49291 -1.79180 3936 ft 181 kts 348°
2026-05-06 16:16 52.50610 -1.79150 4198 ft 202 kts 11°
2026-05-06 16:17 52.52061 -1.78737 4436 ft 223 kts
2026-05-06 16:17 52.53687 -1.78357 4712 ft 248 kts
2026-05-06 16:17 52.55431 -1.77986 5463 ft 256 kts
2026-05-06 16:17 52.57225 -1.77617 5885 ft 261 kts
2026-05-06 16:18 52.59010 -1.77252 5992 ft 262 kts
2026-05-06 16:18 52.60821 -1.76882 6287 ft 263 kts
2026-05-06 16:18 52.62632 -1.76508 7206 ft 264 kts
2026-05-06 16:18 52.64467 -1.76128 8026 ft 267 kts
2026-05-06 16:19 52.66330 -1.75747 8828 ft 272 kts
2026-05-06 16:19 52.68217 -1.75364 9652 ft 275 kts
2026-05-06 16:19 52.70118 -1.74977 10281 ft 285 kts
2026-05-06 16:19 52.72161 -1.74558 10488 ft 308 kts
2026-05-06 16:20 52.74364 -1.74083 10684 ft 329 kts
2026-05-06 16:20 52.76673 -1.73564 11177 ft 339 kts
2026-05-06 16:20 52.79027 -1.73023 11819 ft 343 kts
2026-05-06 16:20 52.81402 -1.72477 12500 ft 347 kts
2026-05-06 16:21 52.83812 -1.71927 13180 ft 351 kts
2026-05-06 16:21 52.86249 -1.71375 13865 ft 354 kts
2026-05-06 16:21 52.88704 -1.70817 14469 ft 358 kts
2026-05-06 16:21 52.91180 -1.70251 15063 ft 361 kts
2026-05-06 16:22 52.93682 -1.69680 15658 ft 365 kts
2026-05-06 16:22 52.96181 -1.69111 16246 ft 368 kts
2026-05-06 16:22 52.98732 -1.68532 16840 ft 372 kts
2026-05-06 16:22 53.01305 -1.67948 17440 ft 375 kts
2026-05-06 16:23 53.03915 -1.67598 18018 ft 377 kts 357°
2026-05-06 16:23 53.06530 -1.68027 18560 ft 378 kts 347°
2026-05-06 16:23 53.09058 -1.69244 19065 ft 379 kts 338°
2026-05-06 16:23 53.11540 -1.70793 19547 ft 382 kts 337°
2026-05-06 16:24 53.14040 -1.72352 20041 ft 385 kts 338°
2026-05-06 16:24 53.15706 -1.73388 20368 ft 387 kts 338°
2026-05-06 16:24 53.18236 -1.74957 20855 ft 390 kts 338°
2026-05-06 16:24 53.20787 -1.76539 21333 ft 393 kts 338°
2026-05-06 16:25 53.24203 -1.78664 21975 ft 397 kts 337°
2026-05-06 16:25 53.25957 -1.79757 22307 ft 398 kts 337°
2026-05-06 16:25 53.28532 -1.81363 22778 ft 401 kts 337°
2026-05-06 16:25 53.31158 -1.83002 23257 ft 404 kts 337°
2026-05-06 16:26 53.33804 -1.84653 23691 ft 407 kts 337°
2026-05-06 16:26 53.36456 -1.86310 24085 ft 410 kts 337°
2026-05-06 16:26 53.39138 -1.87991 24478 ft 413 kts 337°
2026-05-06 16:26 53.41833 -1.89688 24877 ft 415 kts 336°
2026-05-06 16:27 53.44541 -1.91401 25276 ft 417 kts 336°
2026-05-06 16:27 53.47266 -1.93127 25669 ft 419 kts 336°
2026-05-06 16:27 53.50006 -1.94856 26053 ft 422 kts 336°
2026-05-06 16:27 53.52765 -1.96593 26447 ft 424 kts 336°
2026-05-06 16:28 53.55539 -1.98342 26823 ft 427 kts 336°
2026-05-06 16:28 53.58324 -2.00103 27184 ft 429 kts 336°
2026-05-06 16:28 53.61129 -2.01881 27578 ft 432 kts 336°
2026-05-06 16:28 53.63911 -2.03650 27932 ft 434 kts 336°
2026-05-06 16:29 53.69522 -2.07221 28039 ft 426 kts 336°
2026-05-06 16:29 53.75045 -2.10754 28035 ft 422 kts 336°
2026-05-06 16:30 53.79591 -2.13783 28036 ft 421 kts 335°
2026-05-06 16:30 53.85931 -2.18172 28035 ft 421 kts 335°
2026-05-06 16:31 53.91350 -2.21922 28033 ft 421 kts 335°
2026-05-06 16:31 53.96748 -2.25626 28037 ft 421 kts 335°
2026-05-06 16:32 54.02178 -2.29347 28053 ft 421 kts 336°
2026-05-06 16:32 54.07601 -2.33086 28045 ft 420 kts 335°
2026-05-06 16:33 54.13010 -2.36836 28045 ft 420 kts 335°
2026-05-06 16:34 54.21120 -2.42473 28039 ft 419 kts 335°
2026-05-06 16:34 54.26524 -2.46244 28052 ft 419 kts 335°
2026-05-06 16:35 54.31918 -2.50010 28050 ft 418 kts 335°
2026-05-06 16:35 54.37303 -2.53787 28048 ft 418 kts 335°
2026-05-06 16:36 54.42686 -2.57570 28039 ft 418 kts 335°
2026-05-06 16:36 54.48064 -2.61350 28049 ft 418 kts 335°
2026-05-06 16:37 54.53499 -2.65130 28030 ft 425 kts 336°
2026-05-06 16:37 54.58968 -2.68909 28023 ft 426 kts 336°
2026-05-06 16:38 54.64383 -2.72778 28027 ft 416 kts 335°
2026-05-06 16:38 54.69682 -2.76683 28032 ft 413 kts 335°
2026-05-06 16:39 54.74984 -2.80535 28050 ft 413 kts 336°
2026-05-06 16:39 54.80294 -2.84340 27608 ft 413 kts 336°
2026-05-06 16:39 54.82936 -2.86226 27003 ft 408 kts 336°
2026-05-06 16:40 54.85541 -2.88091 26455 ft 402 kts 335°
2026-05-06 16:40 54.88108 -2.89938 25900 ft 396 kts 335°
2026-05-06 16:40 54.90662 -2.91782 25111 ft 398 kts 335°
2026-05-06 16:40 54.93226 -2.93636 24403 ft 397 kts 335°
2026-05-06 16:41 54.95773 -2.95475 23710 ft 396 kts 335°
2026-05-06 16:41 54.98279 -2.97290 22946 ft 395 kts 335°
2026-05-06 16:41 55.00809 -2.99127 22148 ft 393 kts 335°
2026-05-06 16:41 55.03328 -3.00954 21376 ft 391 kts 335°
2026-05-06 16:42 55.05842 -3.02773 20621 ft 390 kts 335°
2026-05-06 16:42 55.08341 -3.04579 19887 ft 388 kts 335°
2026-05-06 16:42 55.10829 -3.06375 19166 ft 387 kts 335°
2026-05-06 16:42 55.13311 -3.08164 18460 ft 381 kts 335°
2026-05-06 16:43 55.15741 -3.09913 17679 ft 374 kts 335°
2026-05-06 16:43 55.18133 -3.11641 16895 ft 369 kts 335°
2026-05-06 16:43 55.20481 -3.13351 16132 ft 363 kts 335°
2026-05-06 16:43 55.22791 -3.15050 15397 ft 357 kts 334°
2026-05-06 16:44 55.25074 -3.16734 14669 ft 354 kts 335°
2026-05-06 16:44 55.27314 -3.18395 13958 ft 354 kts 335°
2026-05-06 16:44 55.29578 -3.20087 13191 ft 354 kts 335°
2026-05-06 16:44 55.31867 -3.21815 12404 ft 353 kts 335°
2026-05-06 16:45 55.34115 -3.23531 11649 ft 352 kts 335°
2026-05-06 16:45 55.36359 -3.25263 10941 ft 351 kts 335°
2026-05-06 16:45 55.38569 -3.26978 10435 ft 344 kts 334°
2026-05-06 16:45 55.40733 -3.28663 9944 ft 337 kts 335°
2026-05-06 16:46 55.42827 -3.30311 9390 ft 331 kts 334°
2026-05-06 16:46 55.44954 -3.31978 8729 ft 329 kts 334°
2026-05-06 16:46 55.46997 -3.33579 8152 ft 325 kts 335°
2026-05-06 16:46 55.48959 -3.35128 7634 ft 321 kts 335°
2026-05-06 16:47 55.50988 -3.36730 7097 ft 318 kts 335°
2026-05-06 16:47 55.52985 -3.38318 6694 ft 310 kts 334°
2026-05-06 16:47 55.54926 -3.39858 6364 ft 301 kts 334°
2026-05-06 16:47 55.56816 -3.41351 6062 ft 293 kts 335°
2026-05-06 16:48 55.58627 -3.42786 5995 ft 277 kts 334°
2026-05-06 16:48 55.60364 -3.44164 6003 ft 269 kts 335°
2026-05-06 16:48 55.62019 -3.45485 6005 ft 253 kts 334°
2026-05-06 16:48 55.63575 -3.46715 6003 ft 237 kts 334°
2026-05-06 16:49 55.65040 -3.47872 6006 ft 232 kts 334°
2026-05-06 16:49 55.66510 -3.49057 6007 ft 231 kts 332°
2026-05-06 16:49 55.67921 -3.50391 5950 ft 226 kts 330°
2026-05-06 16:49 55.69254 -3.51691 5796 ft 215 kts 329°
2026-05-06 16:50 55.70548 -3.52965 5504 ft 212 kts 330°
2026-05-06 16:50 55.71834 -3.54227 5165 ft 211 kts 330°
2026-05-06 16:50 55.73115 -3.55492 4811 ft 211 kts 329°
2026-05-06 16:50 55.74392 -3.56747 4467 ft 210 kts 329°
2026-05-06 16:51 55.75677 -3.58010 4110 ft 210 kts 330°
2026-05-06 16:51 55.76953 -3.59267 4006 ft 209 kts 329°
2026-05-06 16:51 55.78159 -3.60459 4011 ft 187 kts 329°
2026-05-06 16:51 55.79243 -3.61532 3974 ft 171 kts 329°
2026-05-06 16:52 55.80232 -3.62497 3830 ft 160 kts 330°
2026-05-06 16:52 55.81203 -3.63441 3551 ft 158 kts 329°
2026-05-06 16:52 55.82258 -3.63904 3218 ft 160 kts 10°
2026-05-06 16:52 55.83291 -3.63262 3050 ft 158 kts 27°
2026-05-06 16:53 55.84278 -3.62378 3006 ft 159 kts 28°
2026-05-06 16:53 55.85268 -3.61444 3015 ft 165 kts 29°
2026-05-06 16:53 55.86280 -3.60481 3004 ft 163 kts 29°
2026-05-06 16:53 55.87260 -3.59497 2929 ft 162 kts 39°
2026-05-06 16:54 55.87938 -3.57969 2685 ft 153 kts 61°
2026-05-06 16:54 55.88483 -3.56379 2480 ft 147 kts 61°
2026-05-06 16:54 55.89007 -3.54846 2278 ft 146 kts 61°
2026-05-06 16:54 55.89533 -3.53308 2074 ft 145 kts 61°
2026-05-06 16:55 55.90054 -3.51784 1879 ft 144 kts 62°
2026-05-06 16:55 55.90569 -3.50273 1683 ft 142 kts 63°
2026-05-06 16:55 55.91084 -3.48762 1485 ft 142 kts 62°
2026-05-06 16:55 55.91597 -3.47259 1285 ft 141 kts 61°
2026-05-06 16:56 55.92102 -3.45774 1087 ft 139 kts 61°
2026-05-06 16:56 55.92591 -3.44315 898 ft 135 kts 59°
2026-05-06 16:56 55.93075 -3.42899 677 ft 132 kts 60°
2026-05-06 16:56 55.93521 -3.41588 514 ft 131 kts 59°
2026-05-06 16:57 55.93992 -3.40218 354 ft 128 kts 60°
2026-05-06 16:57 55.94454 -3.38861 195 ft 128 kts 60°
2026-05-06 16:57 55.94890 -3.37570 113 ft 108 kts 59°
2026-05-06 16:57 55.95214 -3.36621 113 ft 72 kts 59°
2026-05-06 16:58 55.95427 -3.35993 111 ft 48 kts 58°
2026-05-06 16:58 55.95509 -3.35743 112 ft 17 kts 60°
2026-05-06 16:58 55.95562 -3.35545 112 ft 17 kts 86°
2026-05-06 16:58 55.95494 -3.35433 114 ft 13 kts 150°
2026-05-06 16:59 55.95415 -3.35453 113 ft 13 kts 237°
2026-05-06 16:59 55.95364 -3.35602 116 ft 15 kts 239°
2026-05-06 16:59 55.95316 -3.35744 112 ft 7 kts 239°
2026-05-06 16:59 55.95310 -3.35762 115 ft 0 kts 239°
2026-05-06 17:02 55.95309 -3.35765 116 ft 2 kts 239°
2026-05-06 17:02 55.95298 -3.35797 113 ft 0 kts 239°
2026-05-06 17:04 55.95297 -3.35800 113 ft 3 kts 239°
2026-05-06 17:04 55.95250 -3.35938 114 ft 20 kts 237°
2026-05-06 17:04 55.95173 -3.36167 114 ft 21 kts 239°
2026-05-06 17:04 55.95101 -3.36380 115 ft 19 kts 239°
2026-05-06 17:05 55.95037 -3.36568 114 ft 17 kts 238°
2026-05-06 17:05 55.94981 -3.36733 115 ft 13 kts 238°
2026-05-06 17:05 55.94970 -3.36764 114 ft 0 kts 239°
2026-05-06 17:06 55.94950 -3.36812 114 ft 7 kts 220°
2026-05-06 17:06 55.94904 -3.36801 116 ft 7 kts 132°
2026-05-06 17:06 55.94912 -3.36699 113 ft 12 kts 63°
2026-05-06 17:06 55.94931 -3.36603 115 ft 2 kts 109°
2026-05-06 17:07 55.94910 -3.36577 115 ft 8 kts 147°
2026-05-06 17:07 55.94883 -3.36551 115 ft 0 kts 150°
2026-05-06 17:07 55.94879 -3.36546 113 ft 0 kts 150°